Location: Hillern
(53.0557°N, 9.8577°E)
Time: 00:31:49
(UTC+00:00)

Cosmos 1934 Rocket - Pass Details

Date: 19 May 2025
Orbit: 938 x 997 km, 83.0° (Epoch: 22 June)

Event Time Altitude Azimuth Distance (km) Brightness Sun altitude
Rises 21:22:21 0° 351° (N) 3,665 8.5 -12.9°
Reaches altitude 10° 21:24:57 10° 357° (N) 2,723 7.5 -13.0°
Maximum altitude 21:31:01 50° 72° (ENE) 1,227 4.5 -13.4°
Enters shadow 21:35:34 18° 142° (SE) 2,208 5.3 -13.7°
